Location: Peterborough
(44.3091°N, 78.3197°W)
Time: 15:48:10
(UTC-04:00)

Explorer 7 - Pass Details

Date: 25 March 2023
Orbit: 477 x 653 km, 50.3° (Epoch: 04 June)

Event Time Altitude Azimuth Distance (km) Brightness Sun altitude
Rises 23:07:26 0° 297° (WNW) 2,726 11.2 -35.1°
Reaches altitude 10° 23:09:44 10° 297° (WNW) 1,798 10.1 -35.4°
Enters shadow 23:10:01 12° 297° (WNW) 1,684 9.9 -35.4°
Maximum altitude 23:13:49 87° 208° (SSW) 521 - -35.8°
Drops below altitude 10° 23:17:39 10° 121° (ESE) 1,696 - -36.3°
Sets 23:19:46 0° 120° (ESE) 2,556 - -36.5°
